Simultaneous Nadir Overpasses (SNOs) Predictions

Prediction of SNOs between NPP and GCOM-C Satellite Orbit:

Table of predicted SNOs for the next 14.0 days since TLE Epoch: 10/19/2024
Index Date (NPP) Time (NPP) Lat,Lon (NPP) SZA (NPP ) Date (GCOM-C) Time (GCOM-C) Lat,Lon (GCOM-C) SZA (GCOM-C ) Distance(km) Time Diff (sec)
1 10/21/2024 11:17:11 -69.87,-172.73 99.28 10/21/2024 11:18:20 -69.78,-171.09 99.35 63.87 69
2 10/21/2024 12:07:45 69.21, -4.47 80.08 10/21/2024 12:08:57 69.24, -4.46 80.12 3.37 72
3 10/21/2024 12:58:28 -69.18, 162.89 99.94 10/21/2024 12:59:28 -69.18, 162.83 99.94 2.43 60
4 10/21/2024 13:49:14 69.16, -29.78 80.06 10/21/2024 13:49:55 69.17, -29.80 80.07 1.23 41
5 10/21/2024 14:39:56 -69.13, 137.58 99.96 10/21/2024 14:40:24 -69.16, 137.57 99.94 3.16 28
6 10/21/2024 15:30:42 69.11, -55.08 80.03 10/21/2024 15:30:52 69.10, -55.13 80.02 2.15 10
7 10/21/2024 16:21:25 -69.08, 112.28 99.99 10/21/2024 16:21:22 -69.09, 112.23 99.98 1.86 3
8 10/21/2024 17:12:11 69.06, -80.39 80.01 10/21/2024 17:11:49 69.09, -80.39 80.03 2.47 22
9 10/21/2024 18:02:54 -69.03, 86.97 100.01 10/21/2024 18:02:20 -69.02, 86.90 100.03 3.08 34
10 10/21/2024 18:53:40 69.01,-105.69 79.98 10/21/2024 18:52:47 69.01,-105.72 79.98 1.06 53
11 10/21/2024 19:44:23 -68.98, 61.66 100.04 10/21/2024 19:43:17 -69.00, 61.64 100.02 2.43 66
12 10/21/2024 20:35:03 68.64,-130.57 79.64 10/21/2024 20:33:51 68.62,-131.48 79.61 37.09 72
13 10/21/2024 21:25:37 -68.13, 37.41 100.85 10/21/2024 21:24:29 -68.18, 35.34 100.83 86.14 68



Historial Predications of SNOs between NPP and GCOM-C
